Reno, NV

5:03 AM PDT on August 18, 2017 (GMT -0700)
Reno-Tahoe International

Weather History for KRNO - October, 2012

Change the Weather History Date:

Saturday, October 20, 2012

  Actual Average Record
Temperature  
Mean Temperature 64 °F 52 °F  
Max Temperature 75 °F 67 °F 85 °F (2003)
Min Temperature 53 °F 38 °F 18 °F (1996)
Degree Days  
Heating Degree Days 1 13  
Month to date heating degree days 65 184  
Since 1 July heating degree days 66 274  
Cooling Degree Days 0 0  
Month to date cooling degree days 17 4  
Year to date cooling degree days 1272 838  
Growing Degree Days 15 (Base 50)    
Moisture  
Dew Point 28 °F    
Average Humidity 31    
Maximum Humidity 47    
Minimum Humidity 14    
Precipitation  
Precipitation 0.00 in 0.01 in 0.78 in (1941)
Month to date precipitation 0.08 0.32  
Year to date precipitation 2.81 5.36  
Snow  
Snow 0.00 in 0.00 in 2.00 in (1957)
Month to date snowfall 0.0 0.1  
Since 1 July snowfall 0.0 0.2  
Since 1 September snowfall 0.0 0.2  
Snow Depth 0.00 in    
Sea Level Pressure  
Sea Level Pressure 29.74 in    
Wind  
Wind Speed 12 mph (WNW)    
Max Wind Speed 26 mph    
Max Gust Speed 35 mph    
Visibility 10 miles    
Events      
T = Trace of Precipitation, MM = Missing Value Source: NWS Daily Summary

Daily Weather History Graph

Daily Weather History Graph

Search for Another Location

Airport or City:

Trip Planner

Search our weather history database for the weather conditions in past years. The results will help you decide how hot, cold, wet, or windy it might be!

Date:

Astronomy

Oct. 20, 2012 Rise Set
Actual Time 7:14 AM PDT 6:12 PM PDT
Civil Twilight 6:47 AM PDT 6:39 PM PDT
Nautical Twilight 6:16 AM PDT 7:10 PM PDT
Astronomical Twilight 5:45 AM PDT 7:41 PM PDT
Moon 12:54 PM PDT (10/20) 11:04 PM PDT (10/20)
Length of Visible Light 11h 51m
Length of Day
10h 57m
Waxing Crescent, 35% of the Moon is Illuminated
Oct 20
Waxing Crescent
Oct 21
First Quarter
Oct 29
Full
Nov 6
Last Quarter
Nov 13
New

Hourly Weather History & Observations

Time (PDT) Temp. Dew Point Humidity Pressure Visibility Wind Dir Wind Speed Gust Speed Precip Events Conditions
12:55 AM 57.0 °F 32.0 °F 39% 29.83 in 10.0 mi Calm Calm - N/A   Partly Cloudy
1:55 AM 55.0 °F 30.9 °F 40% 29.82 in 10.0 mi SSE 3.5 mph - N/A   Partly Cloudy
2:55 AM 61.0 °F 26.1 °F 26% 29.79 in 10.0 mi WNW 12.7 mph - N/A   Partly Cloudy
3:55 AM 62.1 °F 25.0 °F 24% 29.77 in 10.0 mi NW 13.8 mph - N/A   Clear
4:55 AM 61.0 °F 24.1 °F 24% 29.78 in 10.0 mi West 10.4 mph - N/A   Clear
5:55 AM 60.1 °F 25.0 °F 26% 29.76 in 10.0 mi West 9.2 mph - N/A   Clear
6:55 AM 57.9 °F 28.0 °F 32% 29.78 in 10.0 mi WNW 8.1 mph - N/A   Scattered Clouds
7:55 AM 57.0 °F 28.9 °F 34% 29.78 in 10.0 mi NNE 5.8 mph - N/A   Scattered Clouds
8:55 AM 60.1 °F 30.0 °F 32% 29.78 in 10.0 mi North 3.5 mph - N/A   Partly Cloudy
9:55 AM 64.9 °F 30.9 °F 28% 29.78 in 10.0 mi ENE 5.8 mph - N/A   Partly Cloudy
10:55 AM 70.0 °F 28.0 °F 21% 29.75 in 10.0 mi WNW 16.1 mph 19.6 mph N/A   Scattered Clouds
11:55 AM 73.0 °F 27.0 °F 18% 29.73 in 10.0 mi West 8.1 mph 21.9 mph N/A   Scattered Clouds
12:55 PM 73.9 °F 27.0 °F 18% 29.70 in 10.0 mi West 8.1 mph 26.5 mph N/A   Scattered Clouds
1:55 PM 73.0 °F 27.0 °F 18% 29.69 in 10.0 mi WNW 21.9 mph 32.2 mph N/A   Scattered Clouds
2:55 PM 73.0 °F 25.0 °F 17% 29.67 in 10.0 mi West 11.5 mph 25.3 mph N/A   Scattered Clouds
3:55 PM 72.0 °F 23.0 °F 16% 29.66 in 10.0 mi West 13.8 mph - N/A   Mostly Cloudy
4:55 PM 70.0 °F 18.0 °F 14% 29.67 in 10.0 mi West 18.4 mph 23.0 mph N/A   Mostly Cloudy
5:55 PM 66.9 °F 24.1 °F 20% 29.68 in 10.0 mi West 11.5 mph - N/A   Scattered Clouds
6:55 PM 63.0 °F 30.0 °F 29% 29.68 in 10.0 mi WNW 13.8 mph - N/A   Scattered Clouds
7:55 PM 61.0 °F 33.1 °F 35% 29.72 in 10.0 mi West 15.0 mph - N/A   Partly Cloudy
8:55 PM 59.0 °F 34.0 °F 39% 29.72 in 10.0 mi WNW 17.3 mph 24.2 mph N/A   Clear
9:55 PM 57.0 °F 36.0 °F 45% 29.72 in 10.0 mi WNW 18.4 mph 25.3 mph N/A   Clear
10:55 PM 55.9 °F 36.0 °F 47% 29.73 in 10.0 mi WNW 15.0 mph - N/A   Scattered Clouds
11:55 PM 55.0 °F 36.0 °F 49% 29.72 in 10.0 mi West 12.7 mph - N/A   Scattered Clouds